Time,TemperatureF,DewpointF,PressureIn,WindDirection,WindDirectionDegrees,WindSpeedMPH,WindSpeedGustMPH,Humidity,HourlyPrecipIn,Conditions,Clouds,dailyrainin,SoftwareType,DateUTC
2013-09-20 00:01:00,76.9,75.4,30.01,SSW,195,0.0,0.0,95,0.00,,,0.11,Wunderground v.1.15,2013-09-20 04:01:00,
2013-09-20 00:02:00,76.8,75.3,30.01,SSW,195,0.0,0.0,95,0.00,,,0.11,Wunderground v.1.15,2013-09-20 04:02:00,
2013-09-20 00:03:00,76.8,75.3,30.01,SSW,195,0.0,0.0,95,0.00,,,0.11,Wunderground v.1.15,2013-09-20 04:03:00,
2013-09-20 00:05:00,76.8,75.3,30.01,SSW,195,0.0,0.0,95,0.00,,,0.11,Wunderground v.1.15,2013-09-20 04:05:00,
2013-09-20 00:10:00,76.6,75.1,30.01,SSW,195,0.0,0.0,95,0.00,,,0.11,Wunderground v.1.15,2013-09-20 04:10:00,
2013-09-20 00:16:00,76.3,74.8,30.01,SSW,195,0.0,0.0,95,0.00,,,0.11,Wunderground v.1.15,2013-09-20 04:16:00,
2013-09-20 00:18:00,76.4,75.2,30.01,SSW,195,0.0,0.0,96,0.00,,,0.11,Wunderground v.1.15,2013-09-20 04:18:00,
2013-09-20 00:24:00,76.4,75.2,30.01,SSW,195,0.0,0.0,96,0.00,,,0.11,Wunderground v.1.15,2013-09-20 04:24:00,
2013-09-20 00:29:00,76.6,75.4,30.01,SSW,195,0.0,0.0,96,0.00,,,0.11,Wunderground v.1.15,2013-09-20 04:29:00,
2013-09-20 00:34:00,76.6,75.4,30.01,SSW,195,0.0,0.0,96,0.00,,,0.11,Wunderground v.1.15,2013-09-20 04:34:00,
2013-09-20 00:40:00,76.4,74.9,30.01,SSW,195,0.0,0.0,95,0.00,,,0.00,Wunderground v.1.15,2013-09-20 04:40:00,
2013-09-20 00:45:00,76.1,74.6,30.01,SSW,196,0.0,0.0,95,0.00,,,0.00,Wunderground v.1.15,2013-09-20 04:45:00,
2013-09-20 00:51:00,75.9,74.4,30.00,SSW,195,0.0,0.0,95,0.00,,,0.00,Wunderground v.1.15,2013-09-20 04:51:00,
2013-09-20 00:57:00,75.7,74.5,30.00,SSW,195,0.0,0.0,96,0.00,,,0.00,Wunderground v.1.15,2013-09-20 04:57:00,
2013-09-20 01:02:00,75.5,74.3,30.00,SSW,195,0.0,0.0,96,0.00,,,0.00,Wunderground v.1.15,2013-09-20 05:02:00,
2013-09-20 01:08:00,75.5,74.3,30.00,SSW,195,0.0,0.0,96,0.00,,,0.00,Wunderground v.1.15,2013-09-20 05:08:00,
2013-09-20 01:14:00,75.3,74.1,30.00,SSW,195,0.0,0.0,96,0.00,,,0.00,Wunderground v.1.15,2013-09-20 05:14:00,
2013-09-20 01:20:00,74.9,73.7,30.00,SSW,195,0.0,0.0,96,0.00,,,0.00,Wunderground v.1.15,2013-09-20 05:20:00,
2013-09-20 01:26:00,74.8,73.6,30.00,SSW,195,0.0,0.0,96,0.00,,,0.00,Wunderground v.1.15,2013-09-20 05:26:00,
2013-09-20 01:32:00,74.7,73.5,30.00,SSW,195,0.0,0.0,96,0.00,,,0.00,Wunderground v.1.15,2013-09-20 05:32:00,
2013-09-20 01:37:00,74.7,73.5,29.99,SSW,195,0.0,0.0,96,0.00,,,0.00,Wunderground v.1.15,2013-09-20 05:37:00,
2013-09-20 01:42:00,74.5,73.3,29.99,SSW,195,0.0,0.0,96,0.00,,,0.00,Wunderground v.1.15,2013-09-20 05:42:00,
2013-09-20 01:48:00,74.2,73.0,29.99,SSW,195,0.0,0.0,96,0.00,,,0.00,Wunderground v.1.15,2013-09-20 05:48:00,
2013-09-20 01:54:00,74.1,72.9,29.99,SSW,195,0.0,0.0,96,0.00,,,0.00,Wunderground v.1.15,2013-09-20 05:54:00,
2013-09-20 02:00:00,73.9,72.7,29.99,SSW,195,0.0,0.0,96,0.00,,,0.00,Wunderground v.1.15,2013-09-20 06:00:00,
2013-09-20 02:06:00,74.0,72.8,29.99,SSW,195,0.0,0.0,96,0.00,,,0.00,Wunderground v.1.15,2013-09-20 06:06:00,
2013-09-20 02:11:00,73.9,72.7,29.99,SSW,195,0.0,0.0,96,0.00,,,0.00,Wunderground v.1.15,2013-09-20 06:11:00,
2013-09-20 02:16:00,73.8,72.6,29.99,SSW,195,0.0,0.0,96,0.00,,,0.00,Wunderground v.1.15,2013-09-20 06:16:00,
2013-09-20 02:21:00,73.9,72.7,29.99,SSW,195,0.0,0.0,96,0.00,,,0.00,Wunderground v.1.15,2013-09-20 06:21:00,
2013-09-20 02:26:00,73.9,72.7,29.99,SSW,195,0.0,0.0,96,0.00,,,0.00,Wunderground v.1.15,2013-09-20 06:26:00,
2013-09-20 02:31:00,73.9,72.7,29.99,SSW,195,0.0,0.0,96,0.00,,,0.00,Wunderground v.1.15,2013-09-20 06:31:00,
2013-09-20 02:36:00,73.8,72.6,29.99,SSW,195,0.0,0.0,96,0.00,,,0.00,Wunderground v.1.15,2013-09-20 06:36:00,
2013-09-20 02:41:00,73.8,72.6,29.99,SSW,195,0.0,0.0,96,0.00,,,0.00,Wunderground v.1.15,2013-09-20 06:41:00,
2013-09-20 02:46:00,73.8,72.6,29.99,SSW,195,0.0,0.0,96,0.00,,,0.00,Wunderground v.1.15,2013-09-20 06:46:00,
2013-09-20 02:51:00,73.9,72.7,29.98,SSW,195,0.0,0.0,96,0.00,,,0.00,Wunderground v.1.15,2013-09-20 06:51:00,
2013-09-20 02:56:00,73.9,72.7,29.98,SSW,195,0.0,0.0,96,0.00,,,0.00,Wunderground v.1.15,2013-09-20 06:56:00,
2013-09-20 03:01:00,73.7,72.5,29.98,SSW,195,0.0,0.0,96,0.00,,,0.00,Wunderground v.1.15,2013-09-20 07:01:00,
2013-09-20 03:06:00,73.5,72.3,29.98,SSW,195,0.0,0.0,96,0.00,,,0.00,Wunderground v.1.15,2013-09-20 07:06:00,
2013-09-20 03:11:00,73.5,72.3,29.98,SSW,195,0.0,0.0,96,0.00,,,0.00,Wunderground v.1.15,2013-09-20 07:11:00,
2013-09-20 03:16:00,73.6,72.4,29.98,SSW,195,0.0,0.0,96,0.00,,,0.00,Wunderground v.1.15,2013-09-20 07:16:00,
2013-09-20 03:21:00,73.7,72.5,29.98,SSW,195,0.0,0.0,96,0.00,,,0.00,Wunderground v.1.15,2013-09-20 07:21:00,
2013-09-20 03:26:00,73.6,72.4,29.98,SSW,195,0.0,0.0,96,0.00,,,0.00,Wunderground v.1.15,2013-09-20 07:26:00,
2013-09-20 03:31:00,73.7,72.5,29.98,SSW,195,0.0,0.0,96,0.00,,,0.00,Wunderground v.1.15,2013-09-20 07:31:00,
2013-09-20 03:36:00,73.7,72.5,29.98,SSW,192,0.0,1.0,96,0.00,,,0.00,Wunderground v.1.15,2013-09-20 07:36:00,
2013-09-20 03:41:00,73.7,72.5,29.98,SSW,192,0.0,1.0,96,0.00,,,0.00,Wunderground v.1.15,2013-09-20 07:41:00,
2013-09-20 03:47:00,73.7,72.5,29.98,SSW,192,0.0,1.0,96,0.00,,,0.00,Wunderground v.1.15,2013-09-20 07:47:00,
2013-09-20 03:52:00,73.6,72.4,29.97,SSW,192,0.0,0.0,96,0.00,,,0.00,Wunderground v.1.15,2013-09-20 07:52:00,
2013-09-20 03:57:00,73.5,72.3,29.97,South,191,0.0,0.0,96,0.00,,,0.00,Wunderground v.1.15,2013-09-20 07:57:00,
2013-09-20 04:02:00,73.6,72.4,29.97,South,178,0.0,0.0,96,0.00,,,0.00,Wunderground v.1.15,2013-09-20 08:02:00,
2013-09-20 04:07:00,73.7,72.5,29.97,South,179,0.0,0.0,96,0.00,,,0.00,Wunderground v.1.15,2013-09-20 08:07:00,
2013-09-20 04:12:00,73.7,72.5,29.97,NE,53,0.0,2.0,96,0.00,,,0.00,Wunderground v.1.15,2013-09-20 08:12:00,
2013-09-20 04:17:00,73.7,72.2,29.97,NNE,26,0.0,2.0,95,0.00,,,0.00,Wunderground v.1.15,2013-09-20 08:17:00,
2013-09-20 04:22:00,73.9,72.4,29.97,NNE,25,0.0,1.0,95,0.00,,,0.00,Wunderground v.1.15,2013-09-20 08:22:00,
2013-09-20 04:27:00,73.9,72.4,29.97,NNE,25,0.0,1.0,95,0.00,,,0.00,Wunderground v.1.15,2013-09-20 08:27:00,
2013-09-20 04:32:00,73.9,72.4,29.97,NNE,25,0.0,0.0,95,0.00,,,0.00,Wunderground v.1.15,2013-09-20 08:32:00,
2013-09-20 04:37:00,73.7,72.2,29.98,NNE,25,0.0,0.0,95,0.00,,,0.00,Wunderground v.1.15,2013-09-20 08:37:00,
2013-09-20 04:42:00,73.6,72.1,29.98,NNE,25,0.0,0.0,95,0.00,,,0.00,Wunderground v.1.15,2013-09-20 08:42:00,
2013-09-20 04:47:00,73.5,72.0,29.98,NNE,25,0.0,0.0,95,0.00,,,0.00,Wunderground v.1.15,2013-09-20 08:47:00,
2013-09-20 04:52:00,73.4,71.9,29.99,NNE,25,0.0,0.0,95,0.00,,,0.00,Wunderground v.1.15,2013-09-20 08:52:00,
2013-09-20 04:57:00,73.4,71.9,29.99,NNE,26,0.0,0.0,95,0.00,,,0.00,Wunderground v.1.15,2013-09-20 08:57:00,
2013-09-20 05:02:00,73.2,71.7,29.99,NNE,25,0.0,0.0,95,0.00,,,0.00,Wunderground v.1.15,2013-09-20 09:02:00,
2013-09-20 05:07:00,73.2,71.7,29.99,NNE,25,0.0,0.0,95,0.00,,,0.00,Wunderground v.1.15,2013-09-20 09:07:00,
2013-09-20 05:12:00,73.2,71.7,29.99,NNE,25,0.0,0.0,95,0.00,,,0.00,Wunderground v.1.15,2013-09-20 09:12:00,
2013-09-20 05:17:00,73.2,71.7,29.99,NNE,25,0.0,0.0,95,0.00,,,0.00,Wunderground v.1.15,2013-09-20 09:17:00,
2013-09-20 05:22:00,73.1,71.6,29.99,NNE,25,0.0,0.0,95,0.00,,,0.00,Wunderground v.1.15,2013-09-20 09:22:00,
2013-09-20 05:27:00,73.1,71.6,29.99,NNE,26,0.0,0.0,95,0.00,,,0.00,Wunderground v.1.15,2013-09-20 09:27:00,
2013-09-20 05:32:00,73.0,71.5,29.99,NNE,25,0.0,0.0,95,0.00,,,0.00,Wunderground v.1.15,2013-09-20 09:32:00,
2013-09-20 05:37:00,73.0,71.5,29.99,NNE,26,0.0,0.0,95,0.00,,,0.00,Wunderground v.1.15,2013-09-20 09:37:00,
2013-09-20 05:42:00,73.0,71.5,29.99,NNE,25,0.0,0.0,95,0.00,,,0.00,Wunderground v.1.15,2013-09-20 09:42:00,
2013-09-20 05:47:00,73.0,71.5,29.99,NNE,26,0.0,0.0,95,0.00,,,0.00,Wunderground v.1.15,2013-09-20 09:47:00,
2013-09-20 05:52:00,72.9,71.4,29.99,NNE,26,0.0,0.0,95,0.00,,,0.00,Wunderground v.1.15,2013-09-20 09:52:00,
2013-09-20 05:58:00,73.0,71.8,29.99,NNE,26,0.0,0.0,96,0.00,,,0.00,Wunderground v.1.15,2013-09-20 09:58:00,
2013-09-20 06:03:00,73.0,71.8,29.99,NNE,25,0.0,0.0,96,0.00,,,0.00,Wunderground v.1.15,2013-09-20 10:03:00,
2013-09-20 06:08:00,73.0,71.8,29.99,NNE,25,0.0,0.0,96,0.00,,,0.00,Wunderground v.1.15,2013-09-20 10:08:00,
2013-09-20 06:13:00,73.0,71.8,29.99,NNE,25,0.0,0.0,96,0.00,,,0.00,Wunderground v.1.15,2013-09-20 10:13:00,
2013-09-20 06:18:00,73.0,71.8,29.99,NNE,25,0.0,0.0,96,0.00,,,0.00,Wunderground v.1.15,2013-09-20 10:18:00,
2013-09-20 06:23:00,72.9,71.7,29.99,NNE,25,0.0,0.0,96,0.00,,,0.00,Wunderground v.1.15,2013-09-20 10:23:00,
2013-09-20 06:28:00,72.9,71.7,29.99,NNE,26,0.0,0.0,96,0.00,,,0.00,Wunderground v.1.15,2013-09-20 10:28:00,
2013-09-20 06:33:00,73.0,71.8,29.99,NNE,25,0.0,0.0,96,0.00,,,0.00,Wunderground v.1.15,2013-09-20 10:33:00,
2013-09-20 06:38:00,73.0,71.8,29.99,NNE,26,0.0,0.0,96,0.00,,,0.00,Wunderground v.1.15,2013-09-20 10:38:00,
2013-09-20 06:43:00,73.1,71.9,29.99,NNE,26,0.0,0.0,96,0.00,,,0.00,Wunderground v.1.15,2013-09-20 10:43:00,
2013-09-20 06:48:00,73.0,71.8,29.99,NNE,26,0.0,0.0,96,0.00,,,0.00,Wunderground v.1.15,2013-09-20 10:48:00,
2013-09-20 06:53:00,72.9,71.7,29.99,NNE,26,0.0,0.0,96,0.00,,,0.00,Wunderground v.1.15,2013-09-20 10:53:00,
2013-09-20 06:58:00,72.9,71.7,29.99,NNE,26,0.0,0.0,96,0.00,,,0.00,Wunderground v.1.15,2013-09-20 10:58:00,
2013-09-20 07:03:00,72.9,71.7,29.99,NNE,26,0.0,0.0,96,0.00,,,0.00,Wunderground v.1.15,2013-09-20 11:03:00,
2013-09-20 07:08:00,72.9,71.7,29.99,NNE,25,0.0,0.0,96,0.00,,,0.00,Wunderground v.1.15,2013-09-20 11:08:00,
2013-09-20 07:13:00,73.0,71.8,29.99,NNE,25,0.0,0.0,96,0.00,,,0.00,Wunderground v.1.15,2013-09-20 11:13:00,
2013-09-20 07:18:00,73.0,71.8,29.99,NNE,26,0.0,0.0,96,0.00,,,0.00,Wunderground v.1.15,2013-09-20 11:18:00,
2013-09-20 07:23:00,73.0,71.8,29.99,NNE,25,0.0,0.0,96,0.00,,,0.00,Wunderground v.1.15,2013-09-20 11:23:00,
2013-09-20 07:28:00,72.9,71.7,29.99,NNE,25,0.0,0.0,96,0.00,,,0.00,Wunderground v.1.15,2013-09-20 11:28:00,
2013-09-20 07:33:00,72.8,71.6,29.99,NNE,26,0.0,0.0,96,0.00,,,0.00,Wunderground v.1.15,2013-09-20 11:33:00,
2013-09-20 07:38:00,72.8,71.6,29.98,NNE,25,0.0,0.0,96,0.00,,,0.00,Wunderground v.1.15,2013-09-20 11:38:00,
2013-09-20 07:43:00,73.1,72.2,29.98,NNE,25,0.0,0.0,97,0.00,,,0.00,Wunderground v.1.15,2013-09-20 11:43:00,
2013-09-20 07:48:00,73.3,72.4,29.98,NNE,26,0.0,1.0,97,0.00,,,0.00,Wunderground v.1.15,2013-09-20 11:48:00,
2013-09-20 07:53:00,73.5,72.6,29.98,NNE,27,1.0,1.0,97,0.00,,,0.00,Wunderground v.1.15,2013-09-20 11:53:00,
2013-09-20 07:58:00,73.7,72.5,29.98,NNE,27,0.0,1.0,96,0.00,,,0.00,Wunderground v.1.15,2013-09-20 11:58:00,
2013-09-20 08:03:00,73.9,72.7,29.98,NNE,27,0.0,1.0,96,0.00,,,0.00,Wunderground v.1.15,2013-09-20 12:03:00,
2013-09-20 08:08:00,74.1,72.9,29.99,NNE,27,1.0,1.0,96,0.00,,,0.00,Wunderground v.1.15,2013-09-20 12:08:00,
2013-09-20 08:13:00,74.5,73.0,29.99,NNE,25,0.0,1.0,95,0.00,,,0.00,Wunderground v.1.15,2013-09-20 12:13:00,
2013-09-20 08:18:00,74.7,72.9,29.99,NNE,25,0.0,1.0,94,0.00,,,0.00,Wunderground v.1.15,2013-09-20 12:18:00,
2013-09-20 08:23:00,75.1,73.3,29.99,NE,39,1.0,1.0,94,0.00,,,0.00,Wunderground v.1.15,2013-09-20 12:23:00,
2013-09-20 08:28:00,75.4,73.2,29.99,NE,40,2.0,3.0,93,0.00,,,0.00,Wunderground v.1.15,2013-09-20 12:28:00,
2013-09-20 08:33:00,75.8,73.0,29.99,NNE,21,2.0,2.0,91,0.00,,,0.00,Wunderground v.1.15,2013-09-20 12:33:00,
2013-09-20 08:38:00,76.3,73.1,29.99,NNE,17,2.0,4.0,90,0.00,,,0.00,Wunderground v.1.15,2013-09-20 12:38:00,
2013-09-20 08:43:00,76.9,73.1,29.99,NE,42,1.0,2.0,88,0.00,,,0.00,Wunderground v.1.15,2013-09-20 12:43:00,
2013-09-20 08:49:00,77.4,72.9,30.00,NNE,14,3.0,3.0,86,0.00,,,0.00,Wunderground v.1.15,2013-09-20 12:49:00,
2013-09-20 08:54:00,77.9,73.0,30.00,NW,319,0.0,3.0,85,0.00,,,0.00,Wunderground v.1.15,2013-09-20 12:54:00,
2013-09-20 08:59:00,78.3,73.1,30.00,NNE,28,2.0,3.0,84,0.00,,,0.00,Wunderground v.1.15,2013-09-20 12:59:00,
2013-09-20 09:04:00,78.7,72.7,30.00,NE,37,3.0,4.0,82,0.00,,,0.00,Wunderground v.1.15,2013-09-20 13:04:00,
2013-09-20 09:09:00,79.2,73.2,30.00,NNE,21,2.0,4.0,82,0.00,,,0.00,Wunderground v.1.15,2013-09-20 13:09:00,
2013-09-20 09:14:00,79.6,72.5,30.00,NNW,342,0.0,5.0,79,0.00,,,0.00,Wunderground v.1.15,2013-09-20 13:14:00,
2013-09-20 09:19:00,80.2,73.1,30.00,NNE,21,2.0,5.0,79,0.00,,,0.00,Wunderground v.1.15,2013-09-20 13:19:00,
2013-09-20 09:24:00,80.8,73.3,30.00,North,355,2.0,3.0,78,0.00,,,0.00,Wunderground v.1.15,2013-09-20 13:24:00,
2013-09-20 09:29:00,81.3,73.0,30.00,NE,38,3.0,4.0,76,0.00,,,0.00,Wunderground v.1.15,2013-09-20 13:29:00,
2013-09-20 09:34:00,81.7,72.6,30.01,North,11,2.0,4.0,74,0.00,,,0.00,Wunderground v.1.15,2013-09-20 13:34:00,
2013-09-20 09:39:00,81.9,72.4,30.01,NE,40,4.0,4.0,73,0.00,,,0.00,Wunderground v.1.15,2013-09-20 13:39:00,
2013-09-20 09:44:00,82.1,72.6,30.01,NE,48,2.0,6.0,73,0.00,,,0.00,Wunderground v.1.15,2013-09-20 13:44:00,
2013-09-20 09:49:00,82.5,73.0,30.01,NNW,344,1.0,6.0,73,0.00,,,0.00,Wunderground v.1.15,2013-09-20 13:49:00,
2013-09-20 09:54:00,83.3,73.7,30.01,NE,42,2.0,5.0,73,0.00,,,0.00,Wunderground v.1.15,2013-09-20 13:54:00,
2013-09-20 09:59:00,83.2,72.4,30.01,NNE,19,5.0,6.0,70,0.00,,,0.00,Wunderground v.1.15,2013-09-20 13:59:00,
2013-09-20 10:04:00,82.8,72.8,30.01,NE,34,5.0,5.0,72,0.00,,,0.00,Wunderground v.1.15,2013-09-20 14:04:00,
2013-09-20 10:09:00,82.6,71.8,30.01,NNE,31,5.0,7.0,70,0.00,,,0.00,Wunderground v.1.15,2013-09-20 14:09:00,
2013-09-20 10:14:00,82.3,71.1,30.01,NNE,30,3.0,7.0,69,0.00,,,0.00,Wunderground v.1.15,2013-09-20 14:14:00,
2013-09-20 10:19:00,82.3,72.4,30.01,NNW,344,1.0,7.0,72,0.00,,,0.00,Wunderground v.1.15,2013-09-20 14:19:00,
2013-09-20 10:24:00,82.3,72.0,30.01,NE,46,6.0,7.0,71,0.00,,,0.00,Wunderground v.1.15,2013-09-20 14:24:00,
2013-09-20 10:29:00,82.3,71.5,30.01,NNE,24,4.0,7.0,70,0.00,,,0.00,Wunderground v.1.15,2013-09-20 14:29:00,
2013-09-20 10:34:00,82.3,71.1,30.01,NNE,27,5.0,9.0,69,0.00,,,0.00,Wunderground v.1.15,2013-09-20 14:34:00,
2013-09-20 10:39:00,82.5,72.1,30.01,NNE,32,5.0,9.0,71,0.00,,,0.00,Wunderground v.1.15,2013-09-20 14:39:00,
2013-09-20 10:44:00,82.5,70.9,30.01,NE,39,1.0,8.0,68,0.00,,,0.00,Wunderground v.1.15,2013-09-20 14:44:00,
2013-09-20 10:49:00,83.2,72.0,30.02,North,351,4.0,8.0,69,0.00,,,0.00,Wunderground v.1.15,2013-09-20 14:49:00,
2013-09-20 10:54:00,83.9,70.9,30.02,NE,35,5.0,8.0,65,0.00,,,0.00,Wunderground v.1.15,2013-09-20 14:54:00,
2013-09-20 10:59:00,84.4,73.1,30.02,NNE,13,4.0,8.0,69,0.00,,,0.00,Wunderground v.1.15,2013-09-20 14:59:00,
2013-09-20 11:04:00,84.6,72.9,30.02,NNE,15,8.0,8.0,68,0.00,,,0.00,Wunderground v.1.15,2013-09-20 15:04:00,
2013-09-20 11:09:00,85.0,72.4,30.02,NE,46,2.0,8.0,66,0.00,,,0.00,Wunderground v.1.15,2013-09-20 15:09:00,
2013-09-20 11:14:00,85.7,72.6,30.02,NNW,342,4.0,6.0,65,0.00,,,0.00,Wunderground v.1.15,2013-09-20 15:14:00,
2013-09-20 11:19:00,85.7,71.2,30.02,North,5,6.0,9.0,62,0.00,,,0.00,Wunderground v.1.15,2013-09-20 15:19:00,
2013-09-20 11:24:00,85.4,71.4,30.02,NNE,22,3.0,10.0,63,0.00,,,0.00,Wunderground v.1.15,2013-09-20 15:24:00,
2013-09-20 11:29:00,85.7,71.7,30.02,NW,313,2.0,10.0,63,0.00,,,0.00,Wunderground v.1.15,2013-09-20 15:29:00,
2013-09-20 11:34:00,86.1,73.0,30.01,NNW,343,4.0,6.0,65,0.00,,,0.00,Wunderground v.1.15,2013-09-20 15:34:00,
2013-09-20 11:39:00,86.0,71.5,30.01,NNE,30,7.0,9.0,62,0.00,,,0.00,Wunderground v.1.15,2013-09-20 15:39:00,
2013-09-20 11:44:00,85.7,71.7,30.01,East,88,5.0,7.0,63,0.00,,,0.00,Wunderground v.1.15,2013-09-20 15:44:00,
2013-09-20 11:49:00,86.1,72.0,30.01,NNE,26,3.0,7.0,63,0.00,,,0.00,Wunderground v.1.15,2013-09-20 15:49:00,
2013-09-20 11:54:00,86.5,71.9,30.01,NNE,19,2.0,8.0,62,0.00,,,0.00,Wunderground v.1.15,2013-09-20 15:54:00,
2013-09-20 11:59:00,86.5,71.9,30.01,NNE,21,4.0,9.0,62,0.00,,,0.00,Wunderground v.1.15,2013-09-20 15:59:00,
2013-09-20 12:04:00,86.3,72.2,30.01,NNE,15,8.0,9.0,63,0.00,,,0.00,Wunderground v.1.15,2013-09-20 16:04:00,
2013-09-20 12:09:00,85.8,73.6,30.01,NNE,21,3.0,9.0,67,0.00,,,0.00,Wunderground v.1.15,2013-09-20 16:09:00,
2013-09-20 12:14:00,85.8,73.1,30.01,North,350,3.0,8.0,66,0.00,,,0.00,Wunderground v.1.15,2013-09-20 16:14:00,
2013-09-20 12:19:00,85.2,73.0,30.01,NE,42,5.0,8.0,67,0.00,,,0.00,Wunderground v.1.15,2013-09-20 16:19:00,
2013-09-20 12:24:00,84.7,72.5,30.01,NE,44,7.0,9.0,67,0.00,,,0.00,Wunderground v.1.15,2013-09-20 16:24:00,
2013-09-20 12:29:00,84.4,72.2,30.01,NNE,33,4.0,9.0,67,0.00,,,0.00,Wunderground v.1.15,2013-09-20 16:29:00,
2013-09-20 12:34:00,84.9,72.7,30.00,NNE,19,2.0,6.0,67,0.00,,,0.00,Wunderground v.1.15,2013-09-20 16:34:00,
2013-09-20 12:39:00,85.4,72.3,30.00,NE,38,5.0,7.0,65,0.00,,,0.00,Wunderground v.1.15,2013-09-20 16:39:00,
2013-09-20 12:44:00,85.4,73.6,30.00,SW,214,1.0,7.0,68,0.00,,,0.00,Wunderground v.1.15,2013-09-20 16:44:00,
2013-09-20 12:50:00,85.9,71.8,30.00,NNE,28,3.0,7.0,63,0.00,,,0.00,Wunderground v.1.15,2013-09-20 16:50:00,
2013-09-20 12:54:00,85.6,72.0,30.00,NNE,24,6.0,8.0,64,0.00,,,0.00,Wunderground v.1.15,2013-09-20 16:54:00,
2013-09-20 12:59:00,86.2,73.0,30.00,NNE,19,4.0,9.0,65,0.00,,,0.00,Wunderground v.1.15,2013-09-20 16:59:00,
2013-09-20 13:05:00,86.5,71.5,29.99,NNE,31,5.0,7.0,61,0.00,,,0.00,Wunderground v.1.15,2013-09-20 17:05:00,
2013-09-20 13:10:00,86.4,71.8,29.99,NNE,30,4.0,4.0,62,0.00,,,0.00,Wunderground v.1.15,2013-09-20 17:10:00,
2013-09-20 13:15:00,86.5,72.9,29.99,NNW,332,3.0,7.0,64,0.00,,,0.00,Wunderground v.1.15,2013-09-20 17:15:00,
2013-09-20 13:20:00,86.5,71.5,29.99,ENE,58,0.0,7.0,61,0.00,,,0.00,Wunderground v.1.15,2013-09-20 17:20:00,
2013-09-20 13:26:00,86.6,71.1,29.99,ENE,72,4.0,7.0,60,0.00,,,0.00,Wunderground v.1.15,2013-09-20 17:26:00,
2013-09-20 13:31:00,86.8,70.2,29.99,NNW,332,6.0,8.0,58,0.00,,,0.00,Wunderground v.1.15,2013-09-20 17:31:00,
2013-09-20 13:36:00,86.4,71.4,29.98,NNW,343,6.0,8.0,61,0.00,,,0.00,Wunderground v.1.15,2013-09-20 17:36:00,
2013-09-20 13:41:00,86.5,71.0,29.98,NNE,28,7.0,7.0,60,0.00,,,0.00,Wunderground v.1.15,2013-09-20 17:41:00,
2013-09-20 13:46:00,86.8,70.8,29.98,ENE,64,5.0,8.0,59,0.00,,,0.00,Wunderground v.1.15,2013-09-20 17:46:00,
2013-09-20 13:51:00,86.7,70.2,29.97,NNE,17,3.0,8.0,58,0.00,,,0.00,Wunderground v.1.15,2013-09-20 17:51:00,
2013-09-20 13:56:00,86.7,70.7,29.97,NNE,27,9.0,12.0,59,0.00,,,0.00,Wunderground v.1.15,2013-09-20 17:56:00,
2013-09-20 14:01:00,85.9,70.4,29.97,NW,318,2.0,5.0,60,0.00,,,0.00,Wunderground v.1.15,2013-09-20 18:01:00,
2013-09-20 14:06:00,86.2,72.1,29.96,NNE,32,3.0,7.0,63,0.00,,,0.00,Wunderground v.1.15,2013-09-20 18:06:00,
2013-09-20 14:11:00,86.7,72.1,29.96,NE,47,2.0,3.0,62,0.00,,,0.00,Wunderground v.1.15,2013-09-20 18:11:00,
2013-09-20 14:16:00,86.2,70.7,29.96,NW,310,5.0,8.0,60,0.00,,,0.00,Wunderground v.1.15,2013-09-20 18:16:00,
2013-09-20 14:21:00,85.8,69.8,29.96,NNE,12,7.0,7.0,59,0.00,,,0.00,Wunderground v.1.15,2013-09-20 18:21:00,
2013-09-20 14:26:00,85.8,71.7,29.96,NE,36,10.0,10.0,63,0.00,,,0.00,Wunderground v.1.15,2013-09-20 18:26:00,
2013-09-20 14:31:00,86.3,71.7,29.96,North,11,9.0,9.0,62,0.00,,,0.00,Wunderground v.1.15,2013-09-20 18:31:00,
2013-09-20 14:36:00,85.9,70.4,29.95,NW,326,5.0,9.0,60,0.00,,,0.00,Wunderground v.1.15,2013-09-20 18:36:00,
2013-09-20 14:41:00,86.1,71.1,29.95,North,360,1.0,3.0,61,0.00,,,0.00,Wunderground v.1.15,2013-09-20 18:41:00,
2013-09-20 14:46:00,86.4,70.9,29.95,NNW,328,1.0,9.0,60,0.00,,,0.00,Wunderground v.1.15,2013-09-20 18:46:00,
2013-09-20 14:51:00,86.3,69.3,29.95,NNW,347,3.0,8.0,57,0.00,,,0.00,Wunderground v.1.15,2013-09-20 18:51:00,
2013-09-20 14:56:00,86.1,70.1,29.95,NNW,343,5.0,9.0,59,0.00,,,0.00,Wunderground v.1.15,2013-09-20 18:56:00,
2013-09-20 15:01:00,86.3,70.3,29.95,NNW,348,2.0,6.0,59,0.00,,,0.00,Wunderground v.1.15,2013-09-20 19:01:00,
2013-09-20 15:06:00,86.1,70.6,29.94,NNW,348,5.0,9.0,60,0.00,,,0.00,Wunderground v.1.15,2013-09-20 19:06:00,
2013-09-20 15:11:00,85.7,70.2,29.94,SE,129,2.0,5.0,60,0.00,,,0.00,Wunderground v.1.15,2013-09-20 19:11:00,
2013-09-20 15:16:00,86.2,72.1,29.94,NNW,348,8.0,9.0,63,0.00,,,0.00,Wunderground v.1.15,2013-09-20 19:16:00,
2013-09-20 15:21:00,85.7,71.2,29.94,NNE,19,1.0,3.0,62,0.00,,,0.00,Wunderground v.1.15,2013-09-20 19:21:00,
2013-09-20 15:26:00,85.6,70.6,29.94,North,350,0.0,5.0,61,0.00,,,0.00,Wunderground v.1.15,2013-09-20 19:26:00,
2013-09-20 15:31:00,85.6,71.1,29.94,NE,42,5.0,8.0,62,0.00,,,0.00,Wunderground v.1.15,2013-09-20 19:31:00,
2013-09-20 15:37:00,85.8,69.8,29.94,NE,38,0.0,8.0,59,0.00,,,0.00,Wunderground v.1.15,2013-09-20 19:37:00,
2013-09-20 15:42:00,85.2,69.7,29.94,NNE,25,3.0,7.0,60,0.00,,,0.00,Wunderground v.1.15,2013-09-20 19:42:00,
2013-09-20 15:47:00,85.5,70.0,29.94,NNW,327,1.0,7.0,60,0.00,,,0.00,Wunderground v.1.15,2013-09-20 19:47:00,
2013-09-20 15:52:00,86.0,70.0,29.93,NE,46,4.0,7.0,59,0.00,,,0.00,Wunderground v.1.15,2013-09-20 19:52:00,
2013-09-20 15:57:00,85.9,70.4,29.93,NE,44,2.0,9.0,60,0.00,,,0.00,Wunderground v.1.15,2013-09-20 19:57:00,
2013-09-20 16:02:00,86.1,69.1,29.93,NNE,13,4.0,6.0,57,0.00,,,0.00,Wunderground v.1.15,2013-09-20 20:02:00,
2013-09-20 16:07:00,85.9,68.9,29.93,NE,53,3.0,9.0,57,0.00,,,0.00,Wunderground v.1.15,2013-09-20 20:07:00,
2013-09-20 16:12:00,86.0,68.5,29.93,North,351,7.0,7.0,56,0.00,,,0.00,Wunderground v.1.15,2013-09-20 20:12:00,
2013-09-20 16:17:00,86.4,70.4,29.93,NNE,22,2.0,7.0,59,0.00,,,0.00,Wunderground v.1.15,2013-09-20 20:17:00,
2013-09-20 16:22:00,86.4,69.9,29.93,North,5,6.0,7.0,58,0.00,,,0.00,Wunderground v.1.15,2013-09-20 20:22:00,
2013-09-20 16:27:00,86.3,69.3,29.93,NNE,15,1.0,7.0,57,0.00,,,0.00,Wunderground v.1.15,2013-09-20 20:27:00,
2013-09-20 16:32:00,86.0,69.0,29.93,NNE,20,5.0,6.0,57,0.00,,,0.00,Wunderground v.1.15,2013-09-20 20:32:00,
2013-09-20 16:37:00,86.1,69.6,29.93,NNW,333,3.0,6.0,58,0.00,,,0.00,Wunderground v.1.15,2013-09-20 20:37:00,
2013-09-20 16:42:00,85.5,69.0,29.93,NNW,337,4.0,7.0,58,0.00,,,0.00,Wunderground v.1.15,2013-09-20 20:42:00,
2013-09-20 16:47:00,85.7,71.2,29.93,SE,136,5.0,7.0,62,0.00,,,0.00,Wunderground v.1.15,2013-09-20 20:47:00,
2013-09-20 16:52:00,85.8,70.8,29.93,NW,319,1.0,6.0,61,0.00,,,0.00,Wunderground v.1.15,2013-09-20 20:52:00,
2013-09-20 16:57:00,85.8,70.3,29.93,SE,135,3.0,6.0,60,0.00,,,0.00,Wunderground v.1.15,2013-09-20 20:57:00,
2013-09-20 17:02:00,85.6,69.6,29.93,NNE,19,4.0,11.0,59,0.00,,,0.00,Wunderground v.1.15,2013-09-20 21:02:00,
2013-09-20 17:07:00,85.3,69.8,29.93,NNE,26,4.0,11.0,60,0.00,,,0.00,Wunderground v.1.15,2013-09-20 21:07:00,
2013-09-20 17:12:00,85.2,70.2,29.93,WSW,249,2.0,9.0,61,0.00,,,0.00,Wunderground v.1.15,2013-09-20 21:12:00,
2013-09-20 17:18:00,85.2,71.2,29.93,ENE,69,1.0,9.0,63,0.00,,,0.00,Wunderground v.1.15,2013-09-20 21:18:00,
2013-09-20 17:23:00,85.0,70.5,29.93,NE,55,3.0,7.0,62,0.00,,,0.00,Wunderground v.1.15,2013-09-20 21:23:00,
2013-09-20 17:28:00,85.1,71.1,29.93,NNE,30,2.0,7.0,63,0.00,,,0.00,Wunderground v.1.15,2013-09-20 21:28:00,
2013-09-20 17:33:00,85.2,70.7,29.93,NNE,33,5.0,6.0,62,0.00,,,0.00,Wunderground v.1.15,2013-09-20 21:33:00,
2013-09-20 17:38:00,84.9,70.9,29.92,NNW,346,4.0,8.0,63,0.00,,,0.00,Wunderground v.1.15,2013-09-20 21:38:00,
2013-09-20 17:43:00,84.7,70.7,29.92,NNE,31,3.0,4.0,63,0.00,,,0.00,Wunderground v.1.15,2013-09-20 21:43:00,
2013-09-20 17:48:00,84.7,71.2,29.92,North,11,1.0,5.0,64,0.00,,,0.00,Wunderground v.1.15,2013-09-20 21:48:00,
2013-09-20 17:53:00,84.9,71.4,29.92,NNE,15,1.0,5.0,64,0.00,,,0.00,Wunderground v.1.15,2013-09-20 21:53:00,
2013-09-20 17:58:00,85.0,71.9,29.92,NNE,19,2.0,7.0,65,0.00,,,0.00,Wunderground v.1.15,2013-09-20 21:58:00,
2013-09-20 18:03:00,84.7,71.2,29.92,North,355,4.0,7.0,64,0.00,,,0.00,Wunderground v.1.15,2013-09-20 22:03:00,
2013-09-20 18:08:00,84.7,72.1,29.92,NE,50,4.0,7.0,66,0.00,,,0.00,Wunderground v.1.15,2013-09-20 22:08:00,
2013-09-20 18:13:00,84.4,71.8,29.92,NNE,19,4.0,8.0,66,0.00,,,0.00,Wunderground v.1.15,2013-09-20 22:13:00,
2013-09-20 18:19:00,84.3,71.7,29.92,North,355,5.0,8.0,66,0.00,,,0.00,Wunderground v.1.15,2013-09-20 22:19:00,
2013-09-20 18:24:00,84.1,71.1,29.92,NNE,32,3.0,6.0,65,0.00,,,0.00,Wunderground v.1.15,2013-09-20 22:24:00,
2013-09-20 18:29:00,84.0,71.9,29.92,SSE,168,1.0,6.0,67,0.00,,,0.00,Wunderground v.1.15,2013-09-20 22:29:00,
2013-09-20 18:34:00,83.9,71.8,29.92,NNE,32,3.0,6.0,67,0.00,,,0.00,Wunderground v.1.15,2013-09-20 22:34:00,
2013-09-20 18:39:00,83.7,71.6,29.92,NE,34,3.0,6.0,67,0.00,,,0.00,Wunderground v.1.15,2013-09-20 22:39:00,
2013-09-20 18:44:00,83.5,71.4,29.92,NNE,14,2.0,7.0,67,0.00,,,0.00,Wunderground v.1.15,2013-09-20 22:44:00,
2013-09-20 18:49:00,83.2,72.0,29.92,NNE,33,0.0,7.0,69,0.00,,,0.00,Wunderground v.1.15,2013-09-20 22:49:00,
2013-09-20 18:54:00,83.0,71.8,29.92,NNE,27,3.0,7.0,69,0.00,,,0.00,Wunderground v.1.15,2013-09-20 22:54:00,
2013-09-20 18:59:00,82.9,71.7,29.92,NNE,27,4.0,7.0,69,0.00,,,0.00,Wunderground v.1.15,2013-09-20 22:59:00,
2013-09-20 19:04:00,82.8,72.0,29.91,NNE,19,0.0,6.0,70,0.00,,,0.00,Wunderground v.1.15,2013-09-20 23:04:00,
2013-09-20 19:09:00,82.6,71.8,29.91,NE,48,3.0,6.0,70,0.00,,,0.00,Wunderground v.1.15,2013-09-20 23:09:00,
2013-09-20 19:14:00,82.4,72.0,29.91,NNW,330,2.0,6.0,71,0.00,,,0.00,Wunderground v.1.15,2013-09-20 23:14:00,
2013-09-20 19:19:00,82.2,71.9,29.92,North,11,4.0,7.0,71,0.00,,,0.00,Wunderground v.1.15,2013-09-20 23:19:00,
2013-09-20 19:24:00,82.1,72.2,29.92,NE,46,1.0,7.0,72,0.00,,,0.00,Wunderground v.1.15,2013-09-20 23:24:00,
2013-09-20 19:29:00,82.1,71.8,29.92,NNW,348,4.0,7.0,71,0.00,,,0.00,Wunderground v.1.15,2013-09-20 23:29:00,
2013-09-20 19:34:00,82.1,71.8,29.92,North,350,2.0,5.0,71,0.00,,,0.00,Wunderground v.1.15,2013-09-20 23:34:00,
2013-09-20 19:39:00,81.8,72.7,29.92,NNE,27,3.0,7.0,74,0.00,,,0.00,Wunderground v.1.15,2013-09-20 23:39:00,
2013-09-20 19:44:00,80.9,73.0,29.92,NE,36,4.0,5.0,77,0.00,,,0.00,Wunderground v.1.15,2013-09-20 23:44:00,
2013-09-20 19:49:00,80.2,73.5,29.92,NW,310,6.0,8.0,80,0.00,,,0.00,Wunderground v.1.15,2013-09-20 23:49:00,
2013-09-20 19:54:00,79.6,73.3,29.92,NNE,16,4.0,7.0,81,0.00,,,0.00,Wunderground v.1.15,2013-09-20 23:54:00,
2013-09-20 19:59:00,79.0,73.4,29.92,NNW,345,6.0,9.0,83,0.00,,,0.00,Wunderground v.1.15,2013-09-20 23:59:00,
2013-09-20 20:04:00,78.7,73.5,29.93,NNE,30,6.0,9.0,84,0.00,,,0.00,Wunderground v.1.15,2013-09-21 00:04:00,
2013-09-20 20:09:00,78.6,73.4,29.93,NNW,343,1.0,9.0,84,0.00,,,0.00,Wunderground v.1.15,2013-09-21 00:09:00,
2013-09-20 20:14:00,78.6,73.7,29.93,NNE,23,2.0,4.0,85,0.00,,,0.00,Wunderground v.1.15,2013-09-21 00:14:00,
2013-09-20 20:19:00,78.5,73.6,29.93,NE,56,2.0,6.0,85,0.00,,,0.00,Wunderground v.1.15,2013-09-21 00:19:00,
2013-09-20 20:24:00,78.5,74.0,29.93,NNE,17,3.0,4.0,86,0.00,,,0.00,Wunderground v.1.15,2013-09-21 00:24:00,
2013-09-20 20:29:00,78.5,74.0,29.93,NNW,337,1.0,5.0,86,0.00,,,0.00,Wunderground v.1.15,2013-09-21 00:29:00,
2013-09-20 20:34:00,78.0,73.8,29.93,NNE,22,4.0,4.0,87,0.00,,,0.01,Wunderground v.1.15,2013-09-21 00:34:00,
2013-09-20 20:39:00,77.7,73.9,29.93,NNE,22,0.0,4.0,88,0.00,,,0.01,Wunderground v.1.15,2013-09-21 00:39:00,
2013-09-20 20:44:00,77.4,73.9,29.93,NNE,30,1.0,2.0,89,0.00,,,0.01,Wunderground v.1.15,2013-09-21 00:44:00,
2013-09-20 20:49:00,77.1,73.6,29.93,NE,42,0.0,2.0,89,0.00,,,0.01,Wunderground v.1.15,2013-09-21 00:49:00,
2013-09-20 20:54:00,77.1,73.9,29.93,NE,39,2.0,2.0,90,0.00,,,0.01,Wunderground v.1.15,2013-09-21 00:54:00,
2013-09-20 20:59:00,77.3,74.1,29.93,NE,38,2.0,3.0,90,0.00,,,0.01,Wunderground v.1.15,2013-09-21 00:59:00,
2013-09-20 21:04:00,77.3,74.1,29.93,North,5,0.0,2.0,90,0.00,,,0.01,Wunderground v.1.15,2013-09-21 01:04:00,
2013-09-20 21:09:00,77.4,73.9,29.93,NNE,21,1.0,2.0,89,0.00,,,0.01,Wunderground v.1.15,2013-09-21 01:09:00,
2013-09-20 21:14:00,77.4,73.9,29.93,NNE,27,1.0,3.0,89,0.00,,,0.01,Wunderground v.1.15,2013-09-21 01:14:00,
2013-09-20 21:19:00,77.5,73.7,29.93,NNE,30,1.0,3.0,88,0.00,,,0.01,Wunderground v.1.15,2013-09-21 01:19:00,
2013-09-20 21:24:00,77.6,73.8,29.93,NNE,24,0.0,2.0,88,0.00,,,0.01,Wunderground v.1.15,2013-09-21 01:24:00,
2013-09-20 21:29:00,77.6,73.4,29.93,NNE,24,0.0,2.0,87,0.00,,,0.01,Wunderground v.1.15,2013-09-21 01:29:00,
2013-09-20 21:34:00,77.7,73.5,29.94,NNE,27,0.0,1.0,87,0.00,,,0.01,Wunderground v.1.15,2013-09-21 01:34:00,
2013-09-20 21:40:00,77.7,73.5,29.94,NNE,27,0.0,1.0,87,0.00,,,0.01,Wunderground v.1.15,2013-09-21 01:40:00,
2013-09-20 21:45:00,77.7,73.5,29.94,NNE,27,0.0,1.0,87,0.00,,,0.01,Wunderground v.1.15,2013-09-21 01:45:00,
2013-09-20 21:50:00,77.8,74.0,29.95,SSE,155,0.0,1.0,88,0.00,,,0.01,Wunderground v.1.15,2013-09-21 01:50:00,
2013-09-20 21:55:00,77.9,74.1,29.95,SE,142,2.0,2.0,88,0.00,,,0.01,Wunderground v.1.15,2013-09-21 01:55:00,
2013-09-20 22:00:00,78.0,74.2,29.95,SE,140,1.0,2.0,88,0.00,,,0.01,Wunderground v.1.15,2013-09-21 02:00:00,
2013-09-20 22:05:00,78.0,74.2,29.95,SE,135,0.0,3.0,88,0.00,,,0.01,Wunderground v.1.15,2013-09-21 02:05:00,
2013-09-20 22:10:00,78.1,74.3,29.95,SE,129,2.0,2.0,88,0.00,,,0.01,Wunderground v.1.15,2013-09-21 02:10:00,
2013-09-20 22:15:00,78.3,74.5,29.95,SSE,165,2.0,4.0,88,0.00,,,0.01,Wunderground v.1.15,2013-09-21 02:15:00,
2013-09-20 22:20:00,78.3,74.5,29.95,SSE,165,3.0,3.0,88,0.00,,,0.01,Wunderground v.1.15,2013-09-21 02:20:00,
2013-09-20 22:25:00,78.3,74.5,29.95,SSW,197,0.0,3.0,88,0.00,,,0.01,Wunderground v.1.15,2013-09-21 02:25:00,
2013-09-20 22:30:00,78.2,74.4,29.95,SE,133,2.0,2.0,88,0.00,,,0.01,Wunderground v.1.15,2013-09-21 02:30:00,
2013-09-20 22:36:00,78.1,74.3,29.94,ESE,118,0.0,2.0,88,0.00,,,0.01,Wunderground v.1.15,2013-09-21 02:36:00,
2013-09-20 22:41:00,77.9,74.1,29.94,SE,146,0.0,1.0,88,0.00,,,0.01,Wunderground v.1.15,2013-09-21 02:41:00,
2013-09-20 22:46:00,77.7,73.9,29.94,SE,146,0.0,1.0,88,0.00,,,0.01,Wunderground v.1.15,2013-09-21 02:46:00,
2013-09-20 22:51:00,77.7,73.9,29.94,SE,146,0.0,0.0,88,0.00,,,0.01,Wunderground v.1.15,2013-09-21 02:51:00,
2013-09-20 22:56:00,77.6,74.1,29.94,SE,146,0.0,0.0,89,0.00,,,0.01,Wunderground v.1.15,2013-09-21 02:56:00,
2013-09-20 23:01:00,77.6,74.1,29.94,SE,142,0.0,0.0,89,0.00,,,0.01,Wunderground v.1.15,2013-09-21 03:01:00,
2013-09-20 23:06:00,77.5,74.0,29.94,SSE,167,0.0,1.0,89,0.00,,,0.01,Wunderground v.1.15,2013-09-21 03:06:00,
2013-09-20 23:11:00,77.5,74.0,29.94,South,170,0.0,0.0,89,0.00,,,0.01,Wunderground v.1.15,2013-09-21 03:11:00,
2013-09-20 23:16:00,77.5,74.0,29.94,South,170,0.0,0.0,89,0.00,,,0.01,Wunderground v.1.15,2013-09-21 03:16:00,
2013-09-20 23:21:00,77.4,73.9,29.94,South,169,0.0,0.0,89,0.00,,,0.01,Wunderground v.1.15,2013-09-21 03:21:00,
2013-09-20 23:26:00,77.3,73.8,29.94,South,169,0.0,0.0,89,0.00,,,0.01,Wunderground v.1.15,2013-09-21 03:26:00,
2013-09-20 23:31:00,77.3,73.8,29.94,South,169,0.0,0.0,89,0.00,,,0.01,Wunderground v.1.15,2013-09-21 03:31:00,
2013-09-20 23:36:00,77.4,73.9,29.94,South,170,0.0,1.0,89,0.00,,,0.01,Wunderground v.1.15,2013-09-21 03:36:00,
2013-09-20 23:41:00,77.4,73.9,29.94,South,170,0.0,0.0,89,0.00,,,0.01,Wunderground v.1.15,2013-09-21 03:41:00,
2013-09-20 23:46:00,77.4,74.2,29.94,South,170,0.0,0.0,90,0.00,,,0.01,Wunderground v.1.15,2013-09-21 03:46:00,
2013-09-20 23:51:00,77.6,74.4,29.94,South,169,0.0,0.0,90,0.00,,,0.01,Wunderground v.1.15,2013-09-21 03:51:00,
2013-09-20 23:56:00,77.6,74.1,29.94,SW,217,0.0,0.0,89,0.00,,,0.01,Wunderground v.1.15,2013-09-21 03:56:00,